Printer-friendly version
Follow the MPC on Twitter Follow the MPC on Facebook The MPC blog
Minor Planet Center

MPEC 2006-W83 : 2006 WT29

The following Minor Planet Electronic Circular may be linked-to from your own Web pages, but must not otherwise be redistributed electronically.

A form allowing access to any MPEC is at the bottom of this page.


Read MPEC 2006-W82 Read MPEC 2006-W84


M.P.E.C. 2006-W83                                Issued 2006 Nov. 24, 20:54 UT

     The Minor Planet Electronic Circulars contain information on unusual
         minor planets and routine data on comets.  They are published
   on behalf of Commission 20 of the International Astronomical Union by the
          Minor Planet Center, Smithsonian Astrophysical Observatory,
                          Cambridge, MA 02138, U.S.A.

             Prepared using the Tamkin Foundation Computer Network

                              MPC@CFA.HARVARD.EDU
          URL http://cfa-www.harvard.edu/iau/mpc.html  ISSN 1523-6714

                                   2006 WT29

Observations:
     K06W29T* C2006 11 22.43212 09 00 33.01 +13 12 47.8          20.3 V EW083G96
     K06W29T  C2006 11 22.44232 09 00 33.02 +13 12 03.5          20.2 V EW083G96
     K06W29T  C2006 11 22.45240 09 00 33.00 +13 11 19.8                 EW083G96
     K06W29T  C2006 11 23.47429 09 00 36.50 +11 56 42.0          20.1 V EW083G96
     K06W29T  C2006 11 23.48095 09 00 36.46 +11 56 12.8          20.1 V EW083G96
     K06W29T  C2006 11 23.48732 09 00 36.43 +11 55 45.2          20.0 R EW083854
     K06W29T  C2006 11 23.48767 09 00 36.43 +11 55 43.4          20.0 V EW083G96
     K06W29T  C2006 11 23.49496 09 00 36.41 +11 55 11.1          20.0 R EW083854
     K06W29T  C2006 11 24.44909 09 00 36.44 +10 44 53.9          20.2 V EW083G96
     K06W29T  C2006 11 24.45564 09 00 36.39 +10 44 24.7          20.0 V EW083G96
     K06W29T  C2006 11 24.46207 09 00 36.34 +10 43 56.5          20.1 V EW083G96
     K06W29T  C2006 11 24.46861 09 00 36.27 +10 43 27.3          20.2 V EW083G96

Observer details:
854 Sabino Canyon Observatory, Tucson.  Observer J. E. McGaha.  0.36-m f/10.0
    Schmidt-Cassegrain + CCD.
G96 Mt. Lemmon Survey.  Observers A. R. Gibbs, E. C. Beshore.  Measurers
    E. C. Beshore, E. J. Christensen, G. J. Garradd, A. R. Gibbs, A. D. Grauer,
    R. E. Hill, R. A. Kowalski, S. M. Larson, R. H. McNaught.  1.5-m reflector
    + CCD.

Orbital elements:
2006 WT29                                                Earth MOID = 0.2159 AU
Epoch 2006 Sept. 22.0 TT = JDT 2454000.5                MPC
M 346.25718              (2000.0)            P               Q
n   0.42548120     Peri.  157.43486     +0.48375048     -0.70412055
a   1.7507164      Node   259.83277     +0.70055449     +0.66752536
e   0.3244913      Incl.   31.87719     +0.52460354     -0.24212423
P   2.32           H   19.5           G   0.15           U   8
Residuals in seconds of arc
061122 G96  0.0   0.1-    061123 G96  0.1-  0.0     061124 G96  0.0   0.1+
061122 G96  0.2+  0.0     061123 854  0.1-  0.3+    061124 G96  0.1+  0.1-
061122 G96  0.0   0.2+    061123 G96  0.0   0.1+    061124 G96  0.1+  0.2+
061123 G96  0.0   0.1-    061123 854  0.2+  0.1-    061124 G96  0.1-  0.0

Ephemeris:
2006 WT29                a,e,i = 1.75, 0.32, 32                  q = 1.1826
Date    TT    R. A. (2000) Decl.     Delta      r     Elong.  Phase     V
2006 11 21    09 00.34   +14 56.3    0.483    1.208   105.2    52.1    20.3
2006 12 01    08 59.00   +02 31.2    0.458    1.229   111.4    48.3    20.1
2006 12 11    08 51.16   -10 03.9    0.453    1.256   116.8    44.4    20.0
2006 12 21    08 36.72   -21 22.2    0.470    1.287   120.4    41.3    20.0
2006 12 31    08 16.71   -30 09.4    0.506    1.322   121.8    39.2    20.2
2007 01 10    07 53.87   -35 57.2    0.557    1.360   121.5    38.0    20.4
2007 01 20    07 31.92   -38 58.7    0.618    1.401   120.2    37.4    20.7
2007 01 30    07 14.40   -39 49.1    0.686    1.443   118.3    36.9    21.0
2007 02 09    07 03.18   -39 10.0    0.759    1.486   116.2    36.6    21.2
2007 02 19    06 58.48   -37 34.7    0.835    1.531   113.9    36.2    21.5
2007 03 01    06 59.69   -35 28.7    0.915    1.575   111.4    35.8    21.8
2007 03 11    07 05.76   -33 09.4    0.998    1.620   108.9    35.5    22.0

Gareth V. Williams           (C) Copyright 2006 MPC           M.P.E.C. 2006-W83

Read MPEC 2006-W82 Read MPEC 2006-W84


MPEC number:

Enter an MPEC number in one of the following forms:

  • 1997-B01 (the full form)
  • J97B01 (the packed version of the full form)
  • B01 (the abbreviated form)

Valid HTML 4.01!